Albertville, AL

11:05 PM CDT on April 28, 2017 (GMT -0500)
Albertville

Weather History for K8A0 - November, 2012

Change the Weather History Date:

Saturday, November 10, 2012

  Actual Average (KGAD) Record (KGAD)
Temperature  
Mean Temperature 55 °F -  
Max Temperature 69 °F 62 °F 82 °F (1934)
Min Temperature 41 °F 40 °F 26 °F (2008)
Degree Days  
Heating Degree Days 10    
Growing Degree Days 5 (Base 50)    
Moisture  
Dew Point 38 °F    
Average Humidity 54    
Maximum Humidity 100    
Minimum Humidity 27    
Precipitation  
Precipitation 0.00 in - - ()
Sea Level Pressure  
Sea Level Pressure 30.28 in    
Wind  
Wind Speed 4 mph (SSE)    
Max Wind Speed 8 mph    
Max Gust Speed -    
Visibility 10 miles    
Events      
Averages and records for this station are not official NWS values.
T = Trace of Precipitation, MM = Missing Value Source: NWS Daily Summary

Daily Weather History Graph

Daily Weather History Graph

Search for Another Location

Airport or City:

Trip Planner

Search our weather history database for the weather conditions in past years. The results will help you decide how hot, cold, wet, or windy it might be!

Date:

Astronomy

Nov. 10, 2012 Rise Set
Actual Time 6:13 AM CST 4:43 PM CST
Civil Twilight 5:47 AM CST 5:10 PM CST
Nautical Twilight 5:17 AM CST 5:40 PM CST
Astronomical Twilight 4:47 AM CST 6:09 PM CST
Moon 2:26 AM CST (11/10) 2:23 PM CST (11/10)
Length of Visible Light 11h 23m
Length of Day
10h 30m
Waning Crescent, 14% of the Moon is Illuminated
Nov 10
Waning Crescent
Nov 13
New
Nov 20
First Quarter
Nov 28
Full
Dec 6
Last Quarter

Hourly Weather History & Observations

Time (CST) Temp. Windchill Dew Point Humidity Pressure Visibility Wind Dir Wind Speed Gust Speed Precip Events Conditions
12:15 AM 44.6 °F 42.2 °F 37.4 °F 76% 30.24 in 10.0 mi SSE 4.6 mph - N/A   Unknown
12:35 AM 44.6 °F - 37.4 °F 76% 30.24 in 10.0 mi Calm Calm - N/A   Unknown
12:55 AM 46.4 °F - 37.4 °F 71% 30.24 in 10.0 mi Calm Calm - N/A   Unknown
1:15 AM 44.6 °F - 37.4 °F 76% 30.24 in 10.0 mi Calm Calm - N/A   Unknown
1:55 AM 44.6 °F 43.1 °F 37.4 °F 76% 30.24 in 10.0 mi SE 3.5 mph - N/A   Unknown
2:15 AM 42.8 °F 41.1 °F 37.4 °F 81% 30.25 in 10.0 mi SE 3.5 mph - N/A   Unknown
2:35 AM 46.4 °F 43.5 °F 35.6 °F 66% 30.25 in 10.0 mi SE 5.8 mph - N/A   Unknown
2:55 AM 46.4 °F 42.9 °F 35.6 °F 66% 30.25 in 10.0 mi SE 6.9 mph - N/A   Unknown
3:15 AM 46.4 °F 43.5 °F 35.6 °F 66% 30.25 in 10.0 mi SE 5.8 mph - N/A   Unknown
4:15 AM 46.4 °F 43.5 °F 37.4 °F 71% 30.26 in 10.0 mi ESE 5.8 mph - N/A   Unknown
4:35 AM 46.4 °F 43.5 °F 37.4 °F 71% 30.27 in 10.0 mi SE 5.8 mph - N/A   Unknown
4:55 AM 46.4 °F 44.3 °F 37.4 °F 71% 30.27 in 10.0 mi ESE 4.6 mph - N/A   Unknown
5:15 AM 46.4 °F 43.5 °F 37.4 °F 71% 30.28 in 10.0 mi ESE 5.8 mph - N/A   Unknown
5:35 AM 41.0 °F 39.0 °F 41.0 °F 100% 30.28 in 10.0 mi East 3.5 mph - N/A   Unknown
5:55 AM 42.8 °F 40.1 °F 37.4 °F 81% 30.29 in 10.0 mi ESE 4.6 mph - N/A   Unknown
6:15 AM 44.6 °F 42.2 °F 37.4 °F 76% 30.30 in 10.0 mi ESE 4.6 mph - N/A   Unknown
6:35 AM 44.6 °F 42.2 °F 37.4 °F 76% 30.30 in 10.0 mi ESE 4.6 mph - N/A   Unknown
6:55 AM 44.6 °F 43.1 °F 37.4 °F 76% 30.31 in 10.0 mi ESE 3.5 mph - N/A   Unknown
7:15 AM 46.4 °F 45.2 °F 41.0 °F 81% 30.32 in 10.0 mi SE 3.5 mph - N/A   Unknown
7:55 AM 51.8 °F - 41.0 °F 67% 30.32 in 10.0 mi SE 3.5 mph - N/A   Unknown
8:15 AM 53.6 °F - 41.0 °F 62% 30.32 in 10.0 mi Calm Calm - N/A   Unknown
8:35 AM 55.4 °F - 41.0 °F 58% 30.33 in 10.0 mi SSE 3.5 mph - N/A   Unknown
8:55 AM 59.0 °F - 41.0 °F 51% 30.33 in 10.0 mi South 4.6 mph - N/A   Unknown
9:15 AM 59.0 °F - 41.0 °F 51% 30.33 in 10.0 mi South 3.5 mph - N/A   Unknown
9:35 AM 60.8 °F - 41.0 °F 48% 30.34 in 10.0 mi SW 5.8 mph - N/A   Unknown
9:55 AM 62.6 °F - 41.0 °F 45% 30.34 in 10.0 mi SSW 5.8 mph - N/A   Unknown
10:15 AM 62.6 °F - 41.0 °F 45% 30.33 in 10.0 mi SW 5.8 mph - N/A   Unknown
10:35 AM 62.6 °F - 41.0 °F 45% 30.33 in 10.0 mi SW 6.9 mph - N/A   Unknown
10:55 AM 64.4 °F - 41.0 °F 42% 30.32 in 10.0 mi South 6.9 mph - N/A   Unknown
11:15 AM 64.4 °F - 39.2 °F 40% 30.31 in 10.0 mi SW 4.6 mph - N/A   Unknown
11:35 AM 66.2 °F - 41.0 °F 40% 30.30 in 10.0 mi South 5.8 mph - N/A   Unknown
11:55 AM 66.2 °F - 41.0 °F 40% 30.29 in 10.0 mi Calm Calm - N/A   Unknown
12:15 PM 68.0 °F - 41.0 °F 37% 30.28 in 10.0 mi South 3.5 mph - N/A   Unknown
12:35 PM 68.0 °F - 41.0 °F 37% 30.27 in 10.0 mi SE 3.5 mph - N/A   Unknown
12:55 PM 68.0 °F - 39.2 °F 35% 30.26 in 10.0 mi SSW 3.5 mph - N/A   Unknown
1:15 PM 68.0 °F - 39.2 °F 35% 30.25 in 10.0 mi Calm Calm - N/A   Unknown
1:35 PM 69.8 °F - 37.4 °F 31% 30.25 in 10.0 mi South 6.9 mph - N/A   Unknown
1:55 PM 69.8 °F - 35.6 °F 28% 30.24 in 10.0 mi South 4.6 mph - N/A   Unknown
2:15 PM 69.8 °F - 33.8 °F 27% 30.24 in 10.0 mi South 4.6 mph - N/A   Unknown
2:35 PM 68.0 °F - 35.6 °F 30% 30.24 in 10.0 mi South 8.1 mph - N/A   Unknown
2:55 PM 68.0 °F - 37.4 °F 33% 30.24 in 10.0 mi SSE 6.9 mph - N/A   Unknown
3:15 PM 68.0 °F - 37.4 °F 33% 30.24 in 10.0 mi SSE 3.5 mph - N/A   Unknown
3:35 PM 68.0 °F - 37.4 °F 33% 30.24 in 10.0 mi SSE 5.8 mph - N/A   Unknown
3:55 PM 64.4 °F - 35.6 °F 34% 30.24 in 10.0 mi SSE 3.5 mph - N/A   Unknown
4:15 PM 64.4 °F - 35.6 °F 34% 30.24 in 10.0 mi SSE 5.8 mph - N/A   Unknown
4:35 PM 62.6 °F - 33.8 °F 34% 30.24 in 10.0 mi South 5.8 mph - N/A   Unknown
4:55 PM 60.8 °F - 33.8 °F 36% 30.24 in 10.0 mi South 4.6 mph - N/A   Unknown
5:15 PM 60.8 °F - 32.0 °F 34% 30.25 in 10.0 mi SSE 4.6 mph - N/A   Unknown
5:55 PM 60.8 °F - 33.8 °F 36% 30.26 in 10.0 mi SE 4.6 mph - N/A   Unknown
6:15 PM 59.0 °F - 35.6 °F 42% 30.26 in 10.0 mi SE 4.6 mph - N/A   Unknown
6:35 PM 59.0 °F - 35.6 °F 42% 30.26 in 10.0 mi SE 5.8 mph - N/A   Unknown
6:55 PM 57.2 °F - 37.4 °F 48% 30.26 in 10.0 mi ESE 4.6 mph - N/A   Unknown
7:15 PM 55.4 °F - 39.2 °F 54% 30.27 in 10.0 mi SE 4.6 mph - N/A   Unknown
7:35 PM 55.4 °F - 39.2 °F 54% 30.27 in 10.0 mi SE 4.6 mph - N/A   Unknown
7:55 PM 55.4 °F - 39.2 °F 54% 30.28 in 10.0 mi SE 4.6 mph - N/A   Unknown
8:15 PM 55.4 °F - 39.2 °F 54% 30.29 in 10.0 mi SSE 6.9 mph - N/A   Unknown
8:35 PM 53.6 °F - 39.2 °F 58% 30.29 in 10.0 mi SE 5.8 mph - N/A   Unknown
8:55 PM 53.6 °F - 39.2 °F 58% 30.29 in 10.0 mi SE 4.6 mph - N/A   Unknown
9:15 PM 53.6 °F - 39.2 °F 58% 30.29 in 10.0 mi SE 5.8 mph - N/A   Unknown
9:35 PM 53.6 °F - 37.4 °F 54% 30.28 in 10.0 mi SE 5.8 mph - N/A   Unknown
9:55 PM 53.6 °F - 37.4 °F 54% 30.28 in 10.0 mi ESE 5.8 mph - N/A   Unknown
10:15 PM 53.6 °F - 37.4 °F 54% 30.28 in 10.0 mi SE 4.6 mph - N/A   Unknown
10:35 PM 53.6 °F - 37.4 °F 54% 30.28 in 10.0 mi SE 4.6 mph - N/A   Unknown
10:55 PM 51.8 °F - 37.4 °F 58% 30.28 in 10.0 mi SE 4.6 mph - N/A   Unknown
11:15 PM 51.8 °F - 37.4 °F 58% 30.28 in 10.0 mi SE 5.8 mph - N/A   Unknown
11:35 PM 51.8 °F - 37.4 °F 58% 30.28 in 10.0 mi SE 5.8 mph - N/A   Unknown
11:55 PM 51.8 °F - 37.4 °F 58% 30.28 in 10.0 mi SE 4.6 mph - N/A   Unknown